Voltar ao catálogo

ARIANE 5 R/B

AtivoHEO
NORAD 42816·ROCKET BODY·🇫🇷 France

Lançado Jun 28, 2017 de Guiana Space Centre

Loading…

Próximas Passagens (próximas 24 horas)

TLE

AtualizadoSource: Space-Track

Época: Sep 14, 2026, 11:51 UTC

1 42816U 17040C   26257.49418907  .00002113  00000-0  71576-3 0  9993
2 42816   3.0160  38.6151 7110710 208.6725  79.8562  2.49191132 79504

Acompanhe ARIANE 5 R/B em tempo real com AllMySat

Download on the App Store